TimeCST,TemperatureF,Dew PointF,Humidity,Sea Level PressureIn,VisibilityMPH,Wind Direction,Wind SpeedMPH,Gust SpeedMPH,PrecipitationIn,Events,Conditions,WindDirDegrees,DateUTC
12:53 AM,39.0,36.0,89,30.39,10.0,North,5.8,-,N/A,,Clear,360,2013-11-08 06:53:00
1:53 AM,35.1,33.1,92,30.39,10.0,NW,3.5,-,N/A,,Clear,320,2013-11-08 07:53:00
2:53 AM,33.1,30.9,92,30.39,10.0,Calm,Calm,-,N/A,,Clear,0,2013-11-08 08:53:00
3:53 AM,32.0,30.9,96,30.38,8.0,Calm,Calm,-,N/A,,Clear,0,2013-11-08 09:53:00
4:31 AM,32.0,30.9,96,30.36,1.8,Calm,Calm,-,N/A,,Clear,0,2013-11-08 10:31:00
4:38 AM,32.0,30.0,92,30.36,3.0,Calm,Calm,-,N/A,,Clear,0,2013-11-08 10:38:00
4:53 AM,32.0,30.0,92,30.38,9.0,Calm,Calm,-,N/A,,Clear,0,2013-11-08 10:53:00
5:30 AM,32.0,30.0,92,30.36,1.5,East,3.5,-,N/A,,Clear,90,2013-11-08 11:30:00
5:53 AM,32.0,30.9,96,30.40,2.0,West,3.5,-,N/A,,Clear,280,2013-11-08 11:53:00
6:00 AM,32.0,30.9,96,30.37,7.0,West,4.6,-,N/A,,Clear,260,2013-11-08 12:00:00
6:30 AM,30.9,30.0,96,30.38,1.8,Calm,Calm,-,N/A,,Clear,0,2013-11-08 12:30:00
6:38 AM,34.0,32.0,92,30.38,0.2,Calm,Calm,-,N/A,Fog,Fog,0,2013-11-08 12:38:00
6:53 AM,33.1,32.0,96,30.41,1.8,Calm,Calm,-,N/A,,Partly Cloudy,0,2013-11-08 12:53:00
7:00 AM,34.0,33.1,96,30.38,7.0,Calm,Calm,-,N/A,,Partly Cloudy,0,2013-11-08 13:00:00
7:53 AM,46.9,39.9,77,30.41,10.0,East,3.5,-,N/A,,Clear,100,2013-11-08 13:53:00
8:53 AM,53.1,39.9,61,30.41,10.0,East,3.5,-,N/A,,Clear,100,2013-11-08 14:53:00
9:53 AM,59.0,37.0,44,30.41,10.0,ENE,9.2,-,N/A,,Clear,70,2013-11-08 15:53:00
10:53 AM,62.1,39.0,43,30.39,10.0,ENE,9.2,19.6,N/A,,Clear,70,2013-11-08 16:53:00
11:53 AM,62.1,37.9,41,30.36,10.0,SE,6.9,-,N/A,,Clear,130,2013-11-08 17:53:00
12:53 PM,63.0,39.0,41,30.32,10.0,ENE,4.6,-,N/A,,Clear,70,2013-11-08 18:53:00
1:53 PM,64.0,39.0,40,30.30,10.0,ENE,4.6,-,N/A,,Clear,60,2013-11-08 19:53:00
2:53 PM,64.0,37.0,37,30.29,10.0,ENE,4.6,-,N/A,,Clear,60,2013-11-08 20:53:00
3:53 PM,61.0,41.0,48,30.28,10.0,NNE,4.6,-,N/A,,Clear,20,2013-11-08 21:53:00
4:53 PM,57.0,42.1,57,30.29,10.0,NE,4.6,-,N/A,,Clear,40,2013-11-08 22:53:00
5:53 PM,48.0,43.0,83,30.27,10.0,ENE,3.5,-,N/A,,Clear,60,2013-11-08 23:53:00
6:53 PM,48.0,45.0,89,30.28,10.0,Calm,Calm,-,N/A,,Clear,0,2013-11-09 00:53:00
7:53 PM,46.9,45.0,93,30.28,10.0,Calm,Calm,-,N/A,,Clear,0,2013-11-09 01:53:00
8:53 PM,46.0,43.0,89,30.27,10.0,Calm,Calm,-,N/A,,Clear,0,2013-11-09 02:53:00
9:53 PM,44.1,42.1,93,30.26,10.0,Calm,Calm,-,N/A,,Clear,0,2013-11-09 03:53:00
10:53 PM,41.0,39.0,93,30.25,8.0,Calm,Calm,-,N/A,,Clear,0,2013-11-09 04:53:00
11:53 PM,46.0,43.0,89,30.25,10.0,ESE,4.6,-,N/A,,Clear,110,2013-11-09 05:53:00